Dewpoint
63 65 66 64 64 66 67 68 69 69 69 68 68 67 66 66 67 68 68 68 68 67 67 67 68 68 68 68 68 68 68 68 68 68 68 68 68 68 67 68 68 66 66
64 65 66 64 63 65 65 67 68 68 68 68 67 66 66 65 65 66 66 66 66 66 66 67 68 67 67 67 67 67 67 68 68 68 67 66 65 65 66 68 68 66 66
61 62 64 65 64 64 63 67 67 67 67 66 66 65 65 64 65 65 65 65 65 65 66 67 67 66 65 65 66 66 67 67 67 67 67 66 63 65 66 66 67 66 65
59 60 61 64 64 64 65 67 66 66 65 65 64 64 64 64 64 64 64 64 64 64 64 64 64 63 62 62 62 62 63 64 66 67 63 66 63 66 66 67 67 66 65
58 58 60 63 64 65 65 66 65 65 64 63 62 62 61 61 61 61 61 60 60 60 60 60 60 60 60 61 62 63 62 64 65 63 64 64 63 66 67 66 67 67 67
57 59 61 63 63 63 64 64 65 63 61 59 58 59 58 55 56 56 54 53 53 53 53 54 55 56 61 62 62 63 63 64 65 63 65 65 65 67 66 67 67 67 66
54 57 59 62 61 62 63 63 61 60 58 57 55 54 53 51 51 52 53 54 55 56 56 56 59 61 62 62 62 62 63 64 65 65 65 65 65 65 64 65 66 66 65
53 56 56 57 59 60 60 60 58 58 57 58 56 54 51 52 53 52 54 55 56 57 59 61 61 60 61 60 61 65 65 65 63 64 65 65 67 66 65 65 65 65 65
54 55 53 52 54 57 57 57 58 57 57 57 56 55 53 54 55 54 55 58 59 58 58 62 60 59 59 60 60 64 62 61 59 61 63 65 67 66 66 65 65 65 64
55 54 52 48 47 49 51 57 56 56 56 57 55 56 54 52 53 53 52 58 59 60 59 60 60 59 58 59 58 60 61 56 54 58 61 64 66 66 67 67 65 65 65
53 52 52 51 47 47 47 51 52 54 54 52 53 55 49 44 40 41 56 59 59 58 58 58 59 59 56 56 58 57 56 50 52 56 59 63 63 63 65 65 66 66 66
46 45 43 45 49 49 49 49 45 45 48 49 47 47 47 47 50 49 53 56 56 54 55 54 55 54 51 46 47 50 47 48 48 53 58 61 60 58 60 62 64 64 65
44 43 41 43 43 45 48 46 45 47 48 50 49 48 47 47 47 47 46 45 45 49 45 45 44 44 43 45 42 43 46 48 48 51 58 61 58 55 56 58 60 61 63
42 41 41 40 42 43 44 42 45 46 48 49 49 48 49 47 46 47 47 46 44 44 43 44 43 42 43 42 40 40 42 45 47 47 56 59 58 54 54 54 56 58 61
41 41 40 41 41 41 42 45 47 48 49 49 49 49 49 49 46 47 47 46 43 43 43 42 42 40 39 40 38 38 38 40 44 47 52 58 58 57 52 52 54 55 57
41 42 42 42 41 42 43 44 47 47 47 48 48 49 50 50 47 46 46 46 43 43 43 42 42 41 39 37 34 35 36 38 41 44 48 54 56 57 56 53 53 54 56
41 43 42 42 42 40 42 45 47 47 47 47 48 48 50 50 47 44 45 45 43 42 42 40 40 39 37 34 35 33 34 38 39 38 44 47 52 54 56 55 53 54 54
43 42 42 43 41 42 45 45 46 47 48 48 48 49 50 51 47 43 43 44 43 42 41 40 40 38 37 35 35 32 33 37 30 32 39 44 45 46 50 56 55 54 54
42 42 42 42 42 44 43 44 47 47 48 48 49 50 49 49 47 42 42 43 42 41 41 39 38 38 35 34 34 30 33 36 30 31 35 33 36 36 38 48 56 56 54
42 42 42 42 44 44 47 45 45 47 48 49 50 50 49 46 45 43 41 42 42 40 41 39 37 37 36 36 34 30 33 34 31 33 36 31 32 31 34 34 43 52 54
42 43 42 44 45 47 44 43 44 45 48 49 50 48 46 44 44 42 42 41 42 40 40 38 38 37 36 36 33 33 33 31 31 31 34 31 31 29 30 30 31 42 47
42 43 44 44 45 46 44 44 45 45 48 50 50 46 44 43 43 41 41 41 40 38 38 37 36 36 36 36 33 33 30 30 31 29 32 30 30 30 27 26 28 35 44
41 43 44 44 45 45 44 45 47 49 49 48 47 45 43 43 42 41 41 41 40 38 37 36 35 36 33 35 34 32 29 29 30 31 30 30 28 30 29 27 28 31 40
41 42 44 44 45 44 45 44 45 47 46 48 47 45 42 42 41 41 41 40 39 38 36 36 35 35 34 34 35 34 32 32 28 28 29 29 28 27 27 27 29 29 38
41 42 44 44 45 45 45 44 44 43 44 49 46 43 41 40 40 40 40 39 38 37 36 35 32 31 34 35 34 33 32 31 30 28 26 27 27 27 26 26 27 28 30
42 42 43 45 44 45 45 45 41 43 47 47 45 43 42 40 40 40 39 38 37 36 35 34 33 32 31 34 34 33 32 30 31 29 28 27 25 25 25 25 24 25 27
Lifted_Index
2 1 1 2 2 1 0 -1 -2 -2 -2 -2 -2 -1 -0 -0 -1 -1 -1 -1 -1 -1 -1 -2 -2 -2 -1 -1 -1 -2 -2 -1 -1 -2 -2 -2 -2 -3 -3 -3 -4 -3 -3
2 2 2 2 2 1 0 -1 -1 -2 -2 -1 -1 -0 0 0 0 -0 -0 -0 -1 -1 -1 -1 -2 -1 -1 -1 -1 -1 -1 -1 -1 -2 -2 -2 -2 -2 -2 -3 -3 -3 -3
2 2 2 2 2 1 1 -0 -1 -0 -0 0 1 1 1 1 1 1 1 1 0 0 -0 -1 -1 -0 0 1 0 0 -0 -0 -1 -1 -2 -2 -2 -2 -2 -2 -2 -2 -2
3 3 3 2 2 2 1 1 1 1 1 2 2 2 3 3 3 3 3 3 2 2 2 1 1 2 2 2 2 2 2 1 -0 -1 -1 -1 -2 -2 -2 -3 -2 -2 -2
3 3 3 3 3 2 2 2 2 2 3 3 3 3 4 4 5 5 5 5 4 4 4 4 3 3 3 4 4 4 3 2 0 -0 -1 -1 -2 -2 -3 -3 -3 -2 -2
3 4 4 4 4 3 3 3 3 3 3 4 4 4 5 6 7 7 7 7 6 6 5 5 5 4 4 4 4 4 3 2 0 -1 -1 -1 -1 -2 -3 -3 -3 -2 -2
4 4 5 6 5 5 4 4 4 4 4 5 5 7 8 9 9 9 9 9 8 8 7 6 5 5 5 5 4 4 3 1 0 -0 -0 -1 -1 -2 -3 -3 -2 -2 -2
5 6 7 8 7 7 6 7 7 7 7 7 8 10 11 11 11 11 10 9 9 9 7 6 6 6 6 5 5 3 2 2 1 0 -0 -1 -2 -2 -2 -2 -2 -2 -1
6 7 9 10 10 9 9 9 9 9 9 10 10 12 12 12 12 12 11 9 8 8 7 6 6 7 7 6 5 4 3 3 2 2 1 -0 -1 -2 -2 -2 -2 -1 -1
7 8 10 11 12 12 11 11 11 11 11 11 11 12 12 12 12 12 10 9 8 8 8 7 7 8 8 8 7 5 5 5 4 4 3 1 -0 -1 -1 -2 -1 -1 -1
7 9 10 11 12 12 12 11 11 11 11 11 11 11 12 12 12 11 10 9 8 8 9 8 8 9 9 9 8 8 7 7 6 5 4 2 2 1 0 -0 -1 -1 -1
8 9 10 11 11 11 11 12 12 12 11 11 11 11 11 11 11 11 11 10 10 10 10 10 10 10 11 11 10 9 9 9 9 7 5 4 4 4 3 2 1 0 -0
8 9 10 11 11 11 11 12 12 11 11 11 11 11 11 11 11 11 11 12 12 12 12 11 11 11 12 12 11 10 10 10 10 9 6 5 5 5 5 4 3 2 1
8 9 11 12 11 11 12 12 12 11 11 11 11 11 11 11 11 11 12 12 13 13 12 12 11 12 12 12 11 11 10 10 10 9 7 6 6 6 6 6 5 4 3
8 10 12 12 12 12 12 12 11 11 11 11 11 11 11 11 11 11 12 12 13 13 13 13 12 12 13 12 12 11 11 10 9 9 8 7 6 6 6 6 6 5 5
9 10 12 13 13 12 12 11 11 11 11 11 11 10 10 11 11 12 12 13 13 13 13 13 13 13 13 13 12 12 11 10 9 9 8 7 7 6 6 6 6 5 5
9 10 12 13 13 12 12 11 11 11 11 11 11 10 10 11 11 12 12 12 12 12 12 12 12 12 12 13 12 12 11 10 9 8 8 8 7 7 7 6 6 5 5
9 10 11 12 12 12 11 11 11 11 11 11 10 10 10 11 11 12 12 12 12 11 11 10 10 10 11 11 12 11 10 9 9 9 9 8 8 8 8 7 6 6 6
9 9 10 11 12 11 11 10 10 10 10 10 10 10 10 10 11 12 12 11 11 10 10 9 9 9 9 9 10 10 10 9 10 10 10 9 9 10 10 9 7 6 6
8 9 10 11 11 11 10 10 10 10 10 10 9 9 10 10 11 11 11 10 10 9 9 9 9 9 8 8 8 9 10 10 11 12 12 11 11 12 12 11 10 9 8
7 8 9 10 10 10 10 10 10 10 9 9 9 9 10 10 11 11 10 9 9 9 9 9 9 8 8 8 8 8 9 10 12 13 14 14 14 14 14 14 13 12 11
6 7 8 9 10 10 10 10 10 9 9 9 8 9 10 10 10 10 9 9 9 9 9 9 9 9 9 9 10 9 9 10 11 13 14 15 15 16 16 16 16 15 14
5 6 7 9 9 10 10 10 10 9 9 8 8 8 9 9 9 9 9 9 9 9 10 10 10 10 10 11 12 12 12 12 13 14 15 16 17 17 17 17 17 17 16
5 6 7 8 9 9 10 9 9 9 8 7 7 7 7 8 8 8 9 9 9 10 10 11 12 12 12 12 14 15 15 15 15 15 16 17 17 18 18 18 18 18 18
5 6 7 8 8 9 9 9 9 8 7 7 6 6 6 6 7 8 8 9 9 10 11 12 13 14 14 14 15 16 17 18 17 17 18 18 18 18 19 19 19 19 19
5 6 7 8 8 8 9 9 8 8 7 7 6 6 6 6 7 7 8 9 10 10 11 13 14 14 15 15 16 17 18 18 18 18 18 18 18 18 18 19 19 19 20